Omaha, IA

10:16 AM CST on February 20, 2018 (GMT -0600)
Eppley Airfield

Weather History for KOMA - February, 2013

Change the Weather History Date:

Friday, February 22, 2013

  Actual Average Record
Temperature  
Mean Temperature 18 °F 30 °F  
Max Temperature 24 °F 41 °F 75 °F (2017)
Min Temperature 12 °F 20 °F -8 °F (1910)
Degree Days  
Heating Degree Days 47 35  
Month to date heating degree days 772 833  
Since 1 July heating degree days 4262 4598  
Cooling Degree Days 0 0  
Month to date cooling degree days 0 0  
Year to date cooling degree days 0 0  
Moisture  
Dew Point 14 °F    
Average Humidity 77    
Maximum Humidity 91    
Minimum Humidity 62    
Precipitation  
Precipitation 0.05 in 0.04 in 1.05 in (1971)
Month to date precipitation 0.78 0.63  
Year to date precipitation 1.28 1.35  
Snow  
Snow 0.80 in 0.20 in - ()
Month to date snowfall 9.2 5.0  
Since 1 July snowfall 21.3 20.1  
Snow Depth 8.00 in    
Sea Level Pressure  
Sea Level Pressure 29.98 in    
Wind  
Wind Speed 11 mph (NW)    
Max Wind Speed 18 mph    
Max Gust Speed 23 mph    
Visibility 8 miles    
Events Snow    
T = Trace of Precipitation, MM = Missing Value Source: NWS Daily Summary

Daily Weather History Graph

Daily Weather History Graph

Search for Another Location

Airport or City:

Trip Planner

Search our weather history database for the weather conditions in past years. The results will help you decide how hot, cold, wet, or windy it might be!

Date:

Astronomy

Feb. 22, 2013 Rise Set
Actual Time 7:08 AM CST 6:06 PM CST
Civil Twilight 6:40 AM CST 6:34 PM CST
Nautical Twilight 6:08 AM CST 7:06 PM CST
Astronomical Twilight 5:36 AM CST 7:38 PM CST
Moon 3:17 PM CST (2/22) 4:55 AM CST (2/22)
Length of Visible Light 11h 54m
Length of Day
10h 58m
Waxing Gibbous, 90% of the Moon is Illuminated
Feb 22
Waxing Gibbous
Feb 25
Full
Mar 4
Last Quarter
Mar 11
New
Mar 19
First Quarter

Hourly Weather History & Observations

Time (CST) Temp. Windchill Dew Point Humidity Pressure Visibility Wind Dir Wind Speed Gust Speed Precip Events Conditions
12:08 AM 21.2 °F 10.9 °F 17.6 °F 86% 29.85 in 2.0 mi North 9.2 mph - 0.00 in Snow Light Snow
12:52 AM 21.0 °F 10.6 °F 18.0 °F 88% 29.89 in 2.5 mi North 9.2 mph - 0.00 in Snow Light Snow
1:52 AM 21.0 °F 9.3 °F 18.0 °F 88% 29.89 in 2.5 mi NNW 11.5 mph - 0.01 in Snow Light Snow
2:52 AM 19.9 °F 9.3 °F 17.1 °F 89% 29.89 in 2.5 mi NNW 9.2 mph - 0.01 in Snow Light Snow
3:06 AM 19.4 °F 8.6 °F 17.6 °F 93% 29.85 in 3.0 mi NNW 9.2 mph - 0.00 in Snow Light Snow
3:52 AM 19.9 °F 7.9 °F 16.0 °F 85% 29.89 in 3.0 mi NNW 11.5 mph - 0.00 in Snow Light Snow
4:15 AM 19.4 °F 7.2 °F 15.8 °F 86% 29.85 in 6.0 mi NNW 11.5 mph - 0.00 in Snow Light Snow
4:52 AM 19.9 °F 6.7 °F 16.0 °F 85% 29.90 in 3.0 mi NNW 13.8 mph - 0.00 in Snow Light Snow
5:08 AM 19.4 °F 5.5 °F 15.8 °F 86% 29.86 in 2.5 mi NNW 15.0 mph - 0.00 in Snow Light Snow
5:48 AM 19.4 °F 6.6 °F 15.8 °F 86% 29.86 in 4.0 mi NNW 12.7 mph - 0.00 in Snow Light Snow
5:52 AM 19.4 °F 6.6 °F 15.8 °F 86% 29.87 in 5.0 mi NNW 12.7 mph - N/A Snow Light Snow
6:52 AM 19.0 °F 5.6 °F 14.0 °F 81% 29.92 in 10.0 mi NNW 13.8 mph - 0.00 in Snow Light Snow
7:52 AM 18.0 °F 3.1 °F 12.9 °F 81% 29.95 in 10.0 mi NNW 16.1 mph - 0.00 in   Scattered Clouds
8:52 AM 19.0 °F 5.6 °F 12.0 °F 74% 29.98 in 10.0 mi NNW 13.8 mph - N/A   Scattered Clouds
9:52 AM 21.0 °F 7.6 °F 14.0 °F 74% 30.00 in 10.0 mi NNW 15.0 mph - N/A   Scattered Clouds
10:05 AM 21.2 °F 9.5 °F 14.0 °F 74% 29.96 in 10.0 mi NW 11.5 mph - N/A   Mostly Cloudy
10:52 AM 21.0 °F 8.1 °F 14.0 °F 74% 30.01 in 10.0 mi NW 13.8 mph - N/A   Mostly Cloudy
11:16 AM 23.0 °F 13.1 °F 15.8 °F 74% 29.97 in 10.0 mi NW 9.2 mph - N/A   Mostly Cloudy
11:52 AM 23.0 °F 13.1 °F 14.0 °F 68% 30.03 in 10.0 mi WNW 9.2 mph - N/A   Mostly Cloudy
12:52 PM 21.9 °F 9.8 °F 14.0 °F 72% 30.05 in 10.0 mi WNW 12.7 mph - N/A   Mostly Cloudy
1:49 PM 24.8 °F 14.0 °F 14.0 °F 64% 30.00 in 10.0 mi WNW 11.5 mph - N/A   Mostly Cloudy
1:52 PM 24.1 °F 12.5 °F 14.0 °F 65% 30.04 in 10.0 mi West 12.7 mph - N/A   Mostly Cloudy
2:52 PM 24.1 °F 12.0 °F 14.0 °F 65% 30.04 in 10.0 mi WNW 13.8 mph - N/A   Scattered Clouds
3:52 PM 23.0 °F 9.6 °F 12.9 °F 65% 30.04 in 10.0 mi WNW 16.1 mph - N/A   Scattered Clouds
4:52 PM 23.0 °F 11.1 °F 14.0 °F 68% 30.05 in 10.0 mi WNW 12.7 mph - N/A   Mostly Cloudy
5:52 PM 21.9 °F 10.4 °F 14.0 °F 72% 30.06 in 10.0 mi NW 11.5 mph - N/A   Overcast
6:39 PM 21.2 °F 11.7 °F 12.2 °F 68% 30.03 in 10.0 mi WNW 8.1 mph - N/A   Mostly Cloudy
6:52 PM 19.9 °F 11.1 °F 12.0 °F 71% 30.07 in 10.0 mi WNW 6.9 mph - N/A   Mostly Cloudy
7:52 PM 19.9 °F 13.4 °F 12.9 °F 74% 30.09 in 10.0 mi WSW 4.6 mph - N/A   Overcast
8:13 PM 19.4 °F 10.4 °F 12.2 °F 74% 30.03 in 10.0 mi West 6.9 mph - N/A   Scattered Clouds
8:45 PM 19.4 °F 11.5 °F 12.2 °F 74% 30.03 in 10.0 mi WNW 5.8 mph - N/A   Overcast
8:52 PM 19.9 °F 12.1 °F 12.9 °F 74% 30.08 in 10.0 mi WNW 5.8 mph - N/A   Overcast
9:42 PM 17.6 °F 8.2 °F 10.4 °F 73% 30.03 in 10.0 mi WNW 6.9 mph - N/A   Scattered Clouds
9:52 PM 18.0 °F 7.7 °F 10.9 °F 74% 30.08 in 10.0 mi WNW 8.1 mph - N/A   Scattered Clouds
10:52 PM 14.0 °F - 9.0 °F 80% 30.08 in 10.0 mi Calm Calm - N/A   Clear
11:52 PM 15.1 °F - 9.0 °F 77% 30.07 in 9.0 mi Calm Calm - N/A   Clear